Weather Roundup
Issued by NWS Chicago, IL

Home | Current Version | Previous Version | Text Only | Print | Product List | Glossary Off
Versions: 1 2 3 4 5 6 7 8 9 10 11 12 13 14 15 16 17 18 19 20 21 22 23 24 25 26 27 28 29 30 31 32 33 34 35 36 37 38 39 40 41 42 43 44 45 46 47 48 49 50

000
NZUS59 KLOT 060506
HRRLOT

CHICAGO AREA WEATHER ROUNDUP
NATIONAL WEATHER SERVICE CHICAGO/ROMEOVILLE IL
1100 PM CST THU MAR 05 2015

NOTE: "FAIR" INDICATES FEW OR NO CLOUDS BELOW 12,000 FEET WITH NO
SIGNIFICANT WEATHER AND/OR OBSTRUCTIONS TO VISIBILITY.

* THESE STATIONS ARE NOT UNDER NWS QUALITY CONTROL. THEY ALSO MAY NOT
  REPORT WEATHER SUCH AS PRECIPITATION OR FOG.

ILZ005-006-012>014-019>023-060600-
NORTHEAST ILLINOIS

CITY           SKY/WX    TMP DP  RH WIND       PRES   REMARKS
OHARE          PTCLDY     7  -2  66 W8        30.53F WCI  -6
MIDWAY         PTCLDY    10  -1  61 W8        30.55S WCI  -2
AURORA         PTCLDY     3  -6  66 SW5       30.54S WCI  -6
LANSING*       PTCLDY     6  -1  71 W6        30.56S WCI  -4
JOLIET*        PTCLDY     3  -3  75 CALM      30.56S
WAUKEGAN       PTCLDY     0  -8  69 SW5       30.50F WCI -10
DUPAGE AIRPORT PTCLDY     3  -4  72 SW6       30.52F WCI  -8
WHEELING       PTCLDY     8  -2  63 SW5       30.54F WCI   0
KANKAKEE*      MOCLDY    -2  -6  81 CALM      30.58S
MORRIS*        MOCLDY     3  -2  79 SW5       30.56S WCI  -6
LEWIS AIRPORT* PTCLDY     3  -3  73 W6        30.54F WCI  -8
NORTHERLY IS     N/A     12   1  61 W9          N/A  WCI   0
$$

WIZ051-052-058>065-066-070>072-060600-
SOUTHEAST WISCONSIN

CITY           SKY/WX    TMP DP  RH WIND       PRES   REMARKS
MILWAUKEE      PTCLDY     6  -7  54 W8        30.48F WCI  -7
KENOSHA*       PTCLDY     4  -7  60 SW7       30.49F WCI  -8
RACINE*        PTCLDY     4  -7  60 SW6       30.51F WCI  -7
BURLINGTON     PTCLDY    -8 -13  80 SW3       30.49S
WAUKESHA       PTCLDY     3  -6  66 SW3       30.47F
WEST BEND      MOCLDY     5  -6  61 SW5       30.45S WCI  -4
$$

INZ001>003-010>013-019-020-060600-
NORTHWEST INDIANA

CITY           SKY/WX    TMP DP  RH WIND       PRES   REMARKS
GARY*          PTCLDY    12  -3  51 W6        30.56S WCI   2
MICHIGAN CITY* NOT AVBL
RENSSELAER*    NOT AVBL
VALPARAISO     PTCLDY     6  -3  66 W7        30.54S WCI  -6
$$

LMZ740>746-060600-
SOUTHERN LAKE MICHIGAN

STATION/POSITION TIME  SKY/WX   TEMP WIND        PRES    VSBY
                                AIR  DIR/SP/G
                 (UTC)          (F)  (DEG/KT/KT) (MB)    (MI)
HARRISON CRIB    0500            12  250/ 13/ 16   N/A
BURNHAM HARBOR   0500            12  250/  8/ 12   N/A
CALUMET HARBOR   0500            10  240/  6/ 10 1032.9S
BURNS HARBOR     NOT AVBL
MICHIGAN CITY    0500             9  190/ 11/ 11   N/A
$$

ABBREVIATIONS USED IN REMARKS
   TC - TEMPERATURE IN CELSIUS
  WCI - WIND CHILL INDEX
   HX - HEAT INDEX
  VSB - VISIBILITY
$$



USA.gov is the U.S. government's official web portal to all federal, state and local government web resources and services.